{"data":{"norad_id":65053,"intl_designator":"2025-163A","name":"NISAR","alt_names":[],"object_type":"PAYLOAD","status":"ACTIVE","operator":null,"country":"IND","launch_date":"2025-07-30","launch_site_code":"SRILR","launch_vehicle":null,"mission":null,"orbit_class":"UNKNOWN","rcs_meters":null,"size_class":null,"mass_kg":null,"dimensions":null,"purposes":[],"wikipedia_slug":null,"has_3d_model":false,"image_url":null,"decayed_at":null,"tle_current":{"epoch":"2026-05-25T03:16:02.643744Z","epoch_age_seconds":70092,"freshness":"FRESH","line1":"1 65053U 25163A   26145.13614171  .00000132  00000+0  52842-4 0  9998","line2":"2 65053  98.4057 333.1380 0001221  89.6118 270.5212 14.42504287 43063","mean_motion":14.42504287,"eccentricity":0.0001221,"inclination_deg":98.4057,"raan_deg":333.138,"arg_perigee_deg":89.6118,"mean_anomaly_deg":270.5212,"bstar":5.2842e-5,"rev_number":4306,"period_min":99.826393098269,"perigee_km":749.36589508001,"apogee_km":751.10664383242,"semimajor_km":7128.3732694562,"source":"CELESTRAK","updated_at":"2026-05-25T13:38:05.089442Z"}}}